Wind_Speed
29 28 28 26 24 23 21 20 20 21 21 21 22 23 23 23 23 22 22 22 22 22 23 23 23 24 23 23 22 22 21 20 21 22 22 21 20 19 18 18 17 16 15 14 13 11 9 8 7 6 6 6 8 9 9 8 8 8 8 8 8 8 8
31 30 28 26 25 22 22 22 22 22 22 22 22 23 23 23 23 23 23 24 24 24 25 25 25 24 24 23 23 22 21 21 21 22 22 21 20 19 19 18 17 16 16 15 14 13 11 10 10 9 8 7 8 9 10 10 9 9 8 8 8 8 8
34 31 27 25 22 22 22 22 22 22 22 22 23 23 23 23 23 24 24 25 25 25 25 25 24 24 24 23 23 22 22 21 21 22 22 21 20 19 18 17 17 17 16 16 15 14 13 12 12 11 10 9 9 10 11 11 11 10 10 9 8 8 8
33 29 27 26 23 23 23 22 22 23 22 22 22 23 23 24 25 25 26 25 25 25 24 24 24 24 24 23 23 22 22 22 22 22 22 22 21 19 17 17 17 17 17 17 16 15 14 13 14 14 13 11 10 11 12 12 12 11 11 10 9 8 8
33 27 26 27 24 22 23 23 22 22 21 21 21 22 23 24 26 26 26 25 25 24 24 24 25 24 24 23 23 22 22 22 22 22 23 22 21 20 19 19 19 18 18 19 18 17 15 15 15 15 15 14 13 12 13 13 14 13 12 12 11 9 9
35 30 27 26 24 22 22 23 22 21 20 20 21 21 22 23 25 25 25 25 25 24 24 24 24 24 23 23 23 23 22 22 21 22 22 22 22 21 21 21 21 20 20 20 19 18 18 17 17 17 17 17 15 14 14 14 15 15 14 14 13 11 10
35 31 29 27 25 24 24 23 23 23 22 21 21 21 22 23 24 25 25 25 25 25 24 24 23 23 23 23 23 22 22 22 21 21 21 21 21 21 21 22 21 21 21 21 20 19 19 19 19 19 19 19 18 16 16 16 16 16 16 15 15 13 11
34 31 31 31 29 27 26 25 25 24 24 23 22 21 22 22 22 24 24 25 25 25 24 23 23 23 23 23 23 22 22 22 21 21 20 20 20 20 21 21 21 21 21 21 21 20 20 21 21 20 20 20 20 18 18 18 18 18 17 16 16 15 13
37 33 31 32 32 32 29 27 26 26 25 24 23 23 23 23 23 23 23 24 25 24 24 24 23 23 23 23 22 22 22 22 21 21 20 19 19 19 20 20 20 21 21 21 21 21 21 21 22 21 21 22 21 20 19 19 19 20 19 18 18 17 15
40 37 34 32 34 34 30 28 27 26 25 25 26 26 25 25 25 24 24 24 24 23 23 24 23 23 23 22 22 22 22 22 21 21 21 20 20 20 20 21 21 22 23 23 23 22 22 22 22 22 22 22 21 20 20 20 20 21 20 19 19 18 17
43 39 35 34 34 33 31 29 28 27 26 27 27 26 25 25 25 24 24 24 24 24 24 24 23 23 23 23 23 23 22 22 22 22 22 22 22 22 22 23 23 23 23 24 24 24 24 23 23 22 22 22 22 21 21 21 22 23 22 21 20 19 18
44 38 35 36 36 34 33 31 30 30 30 28 27 26 25 25 24 24 24 24 24 25 25 25 24 23 23 23 23 23 22 22 22 22 22 23 23 23 24 23 23 23 23 23 24 24 24 24 24 24 24 24 23 23 23 23 23 24 24 22 21 20 19
43 39 37 37 36 35 35 33 33 33 33 31 29 28 27 25 24 23 24 24 25 26 26 26 25 24 24 24 24 23 22 22 22 22 23 23 23 24 24 23 22 22 23 23 23 24 24 24 25 25 25 25 25 24 24 24 25 25 24 23 21 20 20
42 41 39 37 37 37 37 37 36 36 35 34 31 29 27 26 24 23 23 24 26 27 27 26 26 24 24 25 25 23 22 23 23 23 23 23 24 23 23 22 21 22 22 22 22 22 23 23 24 25 25 26 26 26 26 25 25 24 23 22 21 20 19
44 43 41 39 40 40 40 39 38 37 36 35 33 30 29 27 25 24 23 23 24 25 26 26 26 25 25 26 26 24 23 24 25 25 24 23 23 22 22 21 21 21 21 21 21 21 21 22 23 24 24 25 25 25 25 24 23 22 21 21 20 19 19
44 43 43 42 42 42 42 40 39 38 37 36 35 33 32 30 29 26 23 22 22 22 23 24 24 24 24 24 25 26 26 26 27 27 25 23 22 21 21 21 21 21 20 20 20 20 20 21 21 21 21 22 22 22 21 20 18 18 19 20 20 20 19
43 44 45 45 44 44 43 42 41 40 39 38 37 36 35 34 32 29 26 23 22 21 22 22 21 21 22 23 25 27 27 28 28 27 26 23 21 21 21 21 20 19 19 18 18 18 18 17 16 17 17 17 17 17 17 15 15 16 17 19 20 20 20
44 46 47 45 44 44 44 44 43 42 41 41 39 39 37 36 35 32 29 26 24 23 22 21 19 19 20 22 24 26 27 28 28 27 25 23 22 21 21 21 20 18 17 16 15 15 14 13 12 12 12 12 13 13 13 13 14 15 17 19 20 21 22
42 44 46 45 43 44 44 45 44 43 43 42 41 41 39 38 37 34 31 29 27 24 23 22 21 20 20 23 24 25 26 27 27 26 25 24 22 22 21 20 19 17 16 15 15 14 13 11 11 10 9 9 9 9 10 11 11 13 15 17 19 21 22
37 39 41 43 45 45 45 45 43 42 43 43 43 42 41 39 37 35 33 31 28 24 23 23 22 20 21 23 24 25 26 27 27 26 26 25 23 22 21 20 18 17 16 16 16 15 13 12 12 11 10 11 10 10 10 10 9 10 12 14 16 18 20
34 36 37 39 41 41 42 43 43 42 41 42 42 42 42 40 38 36 35 33 29 25 23 23 22 20 21 23 24 25 26 26 26 26 26 25 23 22 21 20 19 18 18 18 17 16 15 15 14 13 13 13 14 14 13 12 12 12 13 15 17 18 21
31 33 35 34 33 34 37 40 41 40 39 40 41 42 42 41 40 39 37 34 30 27 25 24 23 20 20 22 23 24 26 26 26 26 25 24 23 22 22 22 21 21 21 21 20 19 18 17 16 16 16 16 17 17 17 16 17 17 18 19 21 23 25
29 30 31 29 26 28 33 34 35 36 37 39 40 42 43 43 42 41 38 35 32 29 26 24 23 20 19 20 22 24 25 26 26 26 25 25 24 23 23 23 23 23 23 24 23 22 21 19 19 20 20 20 21 21 21 21 22 22 21 23 25 28 29
30 31 29 26 26 27 29 29 30 32 33 35 38 41 43 44 44 43 41 37 35 32 26 22 21 20 18 19 21 24 25 26 26 26 26 25 24 24 24 24 25 25 26 26 26 25 24 23 23 23 23 24 24 25 26 26 26 26 26 27 29 31 33
32 31 28 27 28 28 28 28 29 28 29 30 33 37 42 45 45 45 44 41 38 34 27 22 20 19 18 19 22 24 25 25 25 25 26 25 25 25 26 26 26 27 27 28 28 28 27 27 26 26 27 28 28 29 30 31 31 31 31 31 32 33 35
34 32 30 29 29 28 28 28 27 27 28 28 28 31 37 43 46 47 46 44 42 37 29 23 21 20 20 20 21 23 24 25 25 25 25 25 26 26 27 27 28 28 29 29 30 30 30 30 30 30 31 31 32 33 34 35 35 36 36 35 35 35 37
36 34 32 31 30 29 29 27 26 27 28 28 28 28 31 36 43 47 47 46 44 38 30 25 23 22 21 22 21 21 22 22 22 22 24 25 26 28 29 29 29 30 30 30 31 32 32 33 34 34 34 34 34 35 36 36 37 38 38 38 37 38 40
37 35 33 32 31 30 29 28 27 28 28 28 29 28 28 30 35 42 47 47 44 39 32 27 25 24 23 24 23 22 23 22 21 21 23 25 26 27 27 28 29 30 31 32 33 34 35 35 36 36 37 37 36 35 35 35 36 37 36 36 37 38 41
38 36 35 33 32 31 29 27 27 28 29 30 30 29 29 28 29 34 41 44 43 39 33 28 27 26 26 26 26 26 26 26 24 24 25 26 26 26 26 27 29 30 31 32 32 33 34 34 35 35 36 37 37 37 36 35 36 37 37 38 39 40 41
39 38 36 34 33 32 30 28 27 28 30 31 31 30 30 29 28 29 35 41 42 39 34 30 28 28 27 27 28 28 28 27 27 27 27 27 28 28 28 28 29 29 29 29 30 31 32 33 34 34 34 35 36 37 38 39 39 40 42 42 43 44 45
40 39 38 36 34 34 32 29 28 28 29 30 31 31 31 30 28 28 31 37 40 40 36 32 30 30 29 28 28 27 28 28 29 29 29 30 30 31 31 31 31 30 31 32 33 34 35 36 36 37 37 37 38 40 42 43 44 44 45 46 47 48 49
40 40 39 37 36 35 33 31 30 29 29 29 30 30 31 31 29 28 29 33 38 39 37 34 32 32 31 30 29 29 30 31 32 33 33 33 33 34 35 35 35 35 35 36 37 38 39 40 40 41 41 42 43 44 45 46 46 46 47 50 52 52 53
40 39 38 37 37 36 34 32 31 30 29 30 30 30 31 31 30 29 30 32 36 38 38 36 34 33 33 32 33 34 34 35 36 36 37 36 37 38 38 39 40 40 39 40 41 42 43 43 43 44 45 46 48 48 47 47 47 48 50 53 54 54 54
39 38 38 37 37 36 35 33 32 31 30 30 31 31 31 31 31 30 31 32 36 38 39 38 37 36 37 37 37 37 38 39 39 40 40 40 40 41 42 42 43 43 43 45 45 45 45 45 46 47 48 50 50 49 48 49 49 50 52 55 56 56 56
37 37 37 37 37 37 36 34 33 33 32 32 32 32 32 32 32 32 32 33 36 39 41 41 41 41 41 41 40 41 41 42 43 44 43 43 43 43 44 44 45 46 47 48 47 46 47 48 49 50 51 51 51 51 51 52 53 53 55 56 58 59 60
37 36 36 36 36 36 36 35 34 34 34 34 34 33 33 33 33 33 33 33 35 37 40 42 43 44 44 44 43 44 45 46 46 47 47 47 47 46 46 47 48 49 49 49 48 48 50 51 52 52 52 52 53 54 55 56 56 57 57 59 60 61 63
38 37 35 35 35 35 36 35 35 34 35 35 36 35 35 35 35 35 35 36 36 37 38 40 41 43 43 44 45 46 47 48 49 48 48 47 47 46 47 48 49 49 50 50 51 52 54 54 54 54 53 53 54 56 57 58 59 60 60 60 61 62 63
39 38 37 35 34 35 35 34 35 35 35 36 37 37 37 37 37 37 37 38 38 38 39 39 40 41 41 42 44 44 45 45 46 45 45 45 45 45 46 47 49 50 52 53 55 56 56 56 55 55 55 55 56 58 59 61 62 62 62 61 61 62 63
Wind_Direction
218 216 215 210 213 219 219 216 215 212 208 205 202 200 202 202 201 201 202 204 204 204 204 205 207 209 209 210 209 208 207 204 202 202 205 207 209 209 211 212 213 215 218 221 226 231 233 234 239 257 281 302 316 318 309 295 284 282 289 301 312 312 311
222 220 217 211 206 212 219 218 218 215 210 208 207 205 204 203 202 201 202 204 205 206 206 207 208 210 211 211 210 209 210 209 207 208 211 214 216 217 217 218 219 222 224 227 230 233 235 236 239 248 262 280 299 311 312 304 290 280 281 291 303 304 298
228 223 219 217 210 211 218 219 221 220 215 212 211 210 208 206 205 205 206 208 209 211 211 211 213 213 214 214 213 213 213 213 213 214 216 219 222 225 225 224 225 227 229 232 234 236 236 236 239 245 254 265 282 297 307 308 298 283 276 280 291 295 289
227 222 216 215 211 212 219 220 222 223 219 216 215 214 213 211 210 209 210 212 214 217 217 217 218 218 219 219 218 218 218 218 218 219 221 224 227 231 232 231 232 232 234 236 238 240 240 239 240 246 253 259 268 282 295 304 302 289 275 273 280 284 281
229 226 221 215 211 214 220 221 222 225 223 220 219 219 219 217 216 214 215 216 218 220 222 222 222 221 221 222 222 223 223 222 222 223 225 227 230 234 236 237 238 239 240 241 243 245 245 244 243 247 253 256 260 271 284 295 300 293 278 269 271 275 274
230 229 226 221 217 218 220 221 221 222 221 220 219 220 223 223 222 220 219 220 221 222 225 226 226 226 225 226 227 228 229 229 228 229 230 232 234 237 239 241 243 244 246 247 247 248 249 248 247 248 251 254 258 265 275 286 293 293 282 269 265 269 269
228 227 227 226 221 218 218 218 219 219 219 218 215 217 222 225 227 226 223 222 222 223 224 227 228 230 231 231 231 232 234 235 236 237 237 238 239 240 242 244 245 247 249 251 251 251 251 250 249 249 250 254 257 260 267 277 286 290 285 271 262 264 266
225 223 224 226 224 219 215 215 218 219 217 216 214 214 218 223 227 229 228 227 227 224 223 224 225 228 230 231 232 234 235 237 238 239 241 242 243 244 245 246 247 249 250 252 253 252 251 251 250 250 249 252 255 257 262 270 279 284 284 273 262 259 261
226 226 224 224 225 222 214 212 218 220 218 218 216 213 215 219 222 227 230 231 231 229 226 224 223 224 227 229 232 234 237 239 240 242 243 244 245 247 248 249 250 252 253 254 254 253 252 251 251 251 250 250 253 254 257 264 273 279 280 274 263 256 258
227 230 228 226 228 227 219 216 219 222 222 224 222 217 217 219 221 223 228 231 232 232 231 228 225 225 226 228 231 234 237 241 243 245 245 245 246 248 249 250 251 253 255 256 256 257 256 254 253 253 252 251 252 252 255 260 267 273 276 273 264 256 255
227 230 230 228 230 230 228 226 225 226 227 228 228 224 221 221 223 224 227 230 232 233 234 233 230 229 231 232 234 236 238 241 243 245 246 247 247 249 250 251 253 254 256 258 259 259 258 257 255 253 253 253 252 251 254 258 263 268 271 271 265 257 253
226 228 228 226 226 227 229 229 228 228 229 230 231 230 226 223 224 225 227 228 231 234 236 236 235 234 236 237 239 239 240 242 244 245 246 247 247 249 252 254 256 258 259 260 261 260 260 259 257 255 253 253 252 251 253 257 261 265 268 268 264 257 253
226 226 225 224 224 224 226 229 228 229 230 231 232 233 231 226 224 226 228 228 231 234 236 239 239 239 241 243 243 242 243 244 245 245 245 246 247 249 253 256 260 263 264 264 264 263 262 260 258 256 253 251 252 251 252 255 259 263 265 265 261 256 254
227 226 225 223 222 222 224 226 227 228 230 233 235 237 238 235 230 229 230 230 233 235 236 239 241 241 243 246 247 246 246 247 247 245 244 245 247 250 254 258 263 266 267 267 266 264 262 260 258 255 253 251 251 251 252 254 256 259 262 262 259 255 253
226 227 227 225 222 222 224 226 227 228 230 234 237 239 242 242 240 237 235 235 237 238 239 241 242 243 244 246 248 248 247 247 248 247 245 245 246 249 254 259 263 265 265 265 264 262 260 258 256 254 252 251 251 252 253 254 255 256 258 259 258 254 251
226 226 227 228 226 224 226 227 228 229 231 233 236 238 240 242 243 242 240 239 240 242 243 244 244 245 245 244 246 245 242 243 245 247 247 245 245 248 253 258 262 263 263 262 260 260 258 258 256 253 251 251 251 252 254 255 254 255 256 258 258 254 251
224 225 227 228 228 227 228 229 230 231 232 234 236 238 239 240 242 243 242 241 241 242 243 244 244 246 246 244 243 241 239 239 242 245 247 247 246 250 254 258 259 259 258 257 256 255 254 253 252 249 247 247 248 250 252 254 253 252 254 257 259 258 255
222 225 228 230 230 229 230 230 231 232 232 234 237 239 240 240 241 243 244 245 242 240 242 244 245 245 245 242 240 240 239 239 241 243 245 246 247 249 253 255 254 253 251 249 247 245 243 240 238 237 237 240 244 248 251 252 252 252 253 257 259 260 260
226 227 229 230 231 232 232 233 233 233 233 234 237 239 241 241 241 242 245 246 244 242 244 248 247 247 244 241 239 239 238 239 240 240 240 242 244 246 248 249 248 246 244 240 237 235 232 228 226 226 227 230 235 242 248 250 253 256 257 259 261 263 264
232 233 232 229 229 231 233 235 236 236 234 234 236 239 241 241 240 241 245 247 246 244 246 249 247 246 245 242 239 237 238 239 239 238 237 239 240 241 242 242 240 238 237 235 234 233 230 226 224 223 224 227 228 232 240 247 252 256 260 263 265 267 269
229 233 234 233 234 236 236 237 238 239 238 236 236 238 241 242 240 240 244 248 249 247 248 250 247 244 245 244 240 237 237 238 237 236 237 239 240 239 238 237 235 233 233 233 234 233 230 227 227 228 230 233 235 233 236 244 249 253 260 265 267 269 271
227 229 232 235 238 239 239 241 242 243 242 239 237 239 242 243 242 241 243 248 250 250 251 252 250 245 243 246 244 240 238 237 236 236 238 240 240 238 236 235 234 233 233 235 235 235 235 236 238 239 239 241 243 242 240 241 245 249 256 263 268 270 271
230 231 235 238 238 237 238 241 243 245 245 243 240 239 241 244 244 243 244 246 249 252 250 251 253 249 243 244 244 240 237 235 234 235 237 239 240 239 237 237 237 236 237 238 240 240 242 244 246 248 250 251 251 251 249 247 247 247 251 260 268 272 273
231 232 235 237 237 237 238 239 241 243 244 244 242 239 239 242 243 244 244 246 249 251 248 247 253 252 242 239 240 238 236 235 235 236 239 241 243 243 242 242 243 244 245 246 247 248 248 249 251 254 258 260 261 261 260 259 256 253 254 259 265 269 272
232 234 235 234 234 235 237 238 240 240 241 241 240 238 237 238 241 243 244 246 250 252 248 245 251 253 244 239 240 239 239 238 239 241 244 246 248 248 249 251 253 255 256 256 255 255 255 255 256 257 260 262 263 263 264 264 263 261 261 263 265 267 270
233 235 236 235 235 237 238 238 239 240 240 240 239 237 235 235 237 241 243 246 249 251 248 242 244 248 246 243 243 241 240 241 242 244 246 249 251 253 255 257 260 262 264 263 261 261 261 262 263 264 264 265 266 267 267 268 267 266 267 268 270 272 273
233 234 235 236 237 238 240 241 240 240 240 240 239 239 236 234 235 238 241 245 247 249 246 239 237 242 245 245 244 240 238 240 243 247 250 251 253 255 258 260 263 264 265 265 263 262 262 263 265 268 269 270 272 273 274 273 272 271 272 273 274 275 276
232 233 234 236 236 236 239 241 242 242 242 241 240 239 239 236 234 234 238 243 246 246 244 239 237 240 243 243 242 241 241 244 249 252 255 256 256 259 262 264 266 267 268 268 266 265 266 267 269 271 274 275 275 276 276 275 274 273 274 275 276 276 276
232 233 233 233 234 234 235 237 241 243 243 242 242 240 240 239 235 232 234 238 241 242 242 239 236 238 242 243 244 244 247 250 254 256 257 257 258 259 263 266 266 266 267 268 268 268 269 270 273 275 278 278 277 277 277 275 272 272 272 273 275 275 274
232 233 233 232 232 233 233 234 237 241 242 242 243 242 241 240 237 231 229 231 235 238 239 238 237 238 241 244 245 246 248 251 255 257 257 258 259 260 263 267 267 265 264 267 269 269 270 273 275 277 280 279 277 276 275 273 272 271 272 272 274 275 276
233 234 235 234 233 232 232 232 234 237 240 241 242 241 240 240 239 235 229 227 230 234 236 237 236 238 240 243 246 247 249 253 256 259 261 262 265 267 269 271 272 270 268 268 269 270 272 274 276 277 279 279 278 278 277 275 274 273 274 275 276 276 278
233 235 235 235 234 233 232 232 232 234 237 239 239 239 238 238 238 237 232 228 228 231 234 235 236 238 241 245 248 250 252 255 258 261 263 265 267 269 271 272 272 272 270 269 269 270 272 274 275 277 279 281 281 281 279 277 276 276 276 277 277 277 278
234 235 236 235 235 234 233 233 234 234 235 236 237 236 236 236 236 236 234 231 229 230 233 235 237 240 242 245 248 250 253 256 259 262 264 265 265 267 268 269 271 271 270 270 270 270 272 274 277 279 281 282 282 281 279 278 277 278 278 278 279 280 281
233 234 236 236 236 235 234 233 234 236 236 235 235 235 234 235 234 234 233 232 230 231 232 234 236 239 241 243 246 249 252 256 258 260 262 263 264 265 266 267 268 268 268 269 269 270 272 275 278 279 280 281 280 279 279 278 278 278 278 279 281 283 284
233 233 234 236 236 237 236 234 233 235 237 237 236 235 234 233 234 235 234 232 232 232 233 234 236 238 240 242 245 248 251 253 255 257 258 260 262 263 264 265 265 265 266 268 270 271 273 275 276 277 278 278 277 277 277 276 276 278 279 280 282 284 284
232 233 234 234 236 237 237 236 234 233 235 237 236 235 234 234 233 234 235 235 235 234 235 236 237 239 241 243 245 247 249 251 253 254 256 258 260 260 261 262 262 263 265 267 268 270 272 274 275 276 276 274 274 274 274 274 276 277 279 281 283 284 284
231 233 234 234 235 235 236 237 236 235 235 236 236 236 236 235 235 235 235 236 237 237 237 238 239 241 242 244 245 247 249 250 252 254 256 257 258 258 259 259 261 262 264 266 268 270 272 274 275 274 273 271 271 271 272 274 276 278 279 281 282 283 284
231 232 233 234 235 235 236 237 237 237 237 236 236 236 236 236 237 237 237 237 237 238 239 240 242 243 245 246 247 249 251 252 254 255 256 256 257 258 259 260 261 263 266 268 270 272 273 274 274 273 271 269 269 270 272 275 277 280 281 282 283 284 285
Height
5870 5872 5874 5875 5878 5881 5884 5886 5887 5888 5890 5891 5892 5893 5895 5897 5899 5901 5903 5904 5906 5907 5909 5910 5911 5912 5914 5915 5916 5918 5919 5920 5921 5922 5924 5925 5926 5927 5928 5930 5931 5932 5933 5934 5935 5935 5936 5937 5937 5937 5937 5938 5938 5937 5937 5937 5937 5937 5937 5938 5938 5938 5937
5869 5871 5872 5873 5875 5879 5882 5884 5885 5887 5889 5890 5891 5893 5894 5896 5898 5900 5902 5903 5905 5906 5907 5909 5910 5912 5913 5914 5916 5917 5918 5920 5921 5922 5923 5924 5925 5926 5927 5929 5930 5931 5932 5933 5934 5934 5935 5936 5936 5936 5936 5937 5937 5937 5937 5937 5937 5937 5937 5937 5937 5937 5937
5869 5870 5872 5873 5875 5878 5881 5883 5885 5886 5888 5889 5891 5892 5894 5896 5897 5899 5900 5902 5903 5905 5906 5908 5909 5911 5912 5914 5915 5916 5918 5919 5920 5921 5922 5923 5924 5925 5927 5928 5929 5930 5931 5931 5932 5933 5934 5934 5935 5935 5935 5936 5936 5936 5936 5936 5936 5936 5936 5936 5936 5937 5937
5868 5870 5871 5873 5875 5877 5879 5882 5883 5885 5887 5888 5890 5891 5893 5894 5896 5897 5899 5900 5902 5904 5906 5908 5909 5910 5912 5913 5914 5916 5917 5918 5919 5921 5922 5923 5924 5925 5926 5927 5928 5929 5929 5930 5931 5932 5933 5933 5933 5934 5934 5934 5935 5935 5935 5935 5935 5935 5935 5935 5935 5936 5936
5866 5869 5871 5873 5873 5875 5878 5881 5882 5884 5886 5888 5889 5890 5892 5893 5894 5896 5898 5899 5901 5903 5905 5906 5907 5909 5911 5912 5913 5915 5916 5917 5918 5920 5921 5922 5923 5924 5925 5926 5927 5927 5928 5929 5929 5930 5931 5932 5932 5932 5933 5933 5933 5934 5934 5934 5933 5933 5934 5934 5934 5934 5935
5864 5866 5869 5871 5871 5874 5877 5880 5881 5883 5885 5886 5887 5889 5890 5891 5893 5895 5896 5898 5900 5902 5903 5905 5907 5908 5910 5911 5912 5914 5915 5916 5917 5919 5920 5921 5922 5923 5924 5925 5925 5926 5927 5927 5928 5929 5929 5930 5930 5931 5931 5931 5932 5932 5932 5932 5932 5932 5932 5933 5933 5933 5934
5863 5864 5866 5869 5871 5874 5876 5878 5879 5881 5883 5884 5885 5887 5888 5890 5892 5893 5895 5897 5898 5900 5902 5904 5906 5907 5909 5910 5911 5913 5914 5915 5916 5917 5919 5920 5921 5922 5923 5923 5924 5925 5925 5926 5926 5927 5927 5928 5928 5929 5929 5929 5930 5930 5931 5931 5931 5931 5931 5931 5931 5932 5932
5862 5864 5866 5868 5870 5871 5873 5875 5877 5878 5880 5882 5883 5885 5887 5888 5890 5891 5894 5895 5897 5898 5900 5902 5904 5906 5907 5908 5910 5911 5912 5913 5915 5916 5917 5918 5919 5920 5921 5922 5923 5923 5923 5924 5924 5925 5925 5925 5926 5926 5927 5927 5928 5928 5929 5929 5929 5929 5929 5929 5930 5930 5931
5860 5863 5865 5867 5867 5868 5870 5872 5873 5875 5878 5880 5882 5884 5885 5886 5888 5890 5892 5894 5895 5897 5899 5900 5902 5904 5905 5907 5908 5909 5910 5912 5913 5914 5915 5917 5918 5918 5919 5920 5921 5921 5921 5922 5922 5923 5923 5923 5924 5924 5925 5925 5926 5926 5927 5927 5927 5927 5927 5928 5928 5928 5929
5859 5861 5864 5866 5865 5866 5868 5869 5871 5874 5877 5878 5880 5882 5883 5885 5887 5889 5890 5892 5894 5896 5898 5899 5901 5902 5903 5905 5907 5908 5909 5910 5911 5912 5913 5915 5916 5916 5917 5918 5918 5919 5919 5920 5920 5921 5921 5921 5922 5922 5922 5923 5924 5924 5925 5925 5925 5925 5925 5926 5926 5926 5927
5856 5858 5862 5864 5865 5866 5867 5868 5871 5873 5875 5876 5879 5881 5883 5885 5886 5888 5889 5891 5892 5894 5895 5897 5899 5901 5902 5904 5905 5906 5907 5908 5909 5910 5911 5912 5913 5914 5914 5915 5916 5916 5917 5917 5918 5918 5919 5919 5919 5920 5920 5921 5921 5922 5922 5923 5923 5923 5923 5924 5924 5924 5925
5852 5856 5859 5862 5863 5865 5866 5868 5871 5872 5873 5875 5877 5879 5881 5883 5884 5886 5888 5890 5891 5892 5893 5895 5897 5899 5901 5902 5903 5904 5906 5906 5907 5908 5909 5909 5910 5911 5911 5912 5913 5914 5914 5915 5915 5915 5916 5916 5917 5918 5918 5918 5918 5919 5920 5920 5920 5921 5921 5921 5922 5923 5923
5850 5854 5856 5859 5861 5863 5865 5866 5869 5870 5871 5872 5874 5876 5879 5881 5883 5885 5886 5888 5889 5890 5891 5893 5895 5897 5898 5899 5901 5903 5904 5904 5905 5906 5906 5907 5908 5908 5909 5910 5911 5911 5912 5912 5912 5913 5913 5913 5914 5915 5915 5915 5916 5917 5917 5918 5918 5918 5919 5919 5920 5920 5921
5849 5851 5854 5857 5859 5861 5862 5863 5865 5867 5869 5870 5872 5874 5877 5879 5881 5883 5884 5886 5887 5888 5890 5891 5893 5895 5896 5897 5898 5900 5902 5902 5902 5903 5904 5905 5905 5906 5907 5907 5908 5908 5909 5909 5909 5910 5910 5910 5911 5911 5912 5913 5913 5914 5914 5915 5915 5916 5916 5917 5917 5918 5919
5847 5849 5852 5854 5856 5857 5859 5860 5862 5865 5867 5869 5871 5873 5874 5876 5879 5881 5882 5884 5885 5886 5888 5889 5891 5893 5894 5895 5896 5898 5899 5899 5900 5901 5902 5903 5903 5904 5905 5905 5905 5906 5906 5906 5907 5907 5907 5907 5908 5908 5909 5910 5910 5911 5911 5912 5913 5914 5914 5914 5915 5916 5916
5846 5848 5850 5852 5854 5855 5857 5859 5861 5863 5865 5867 5868 5870 5872 5874 5876 5878 5880 5881 5883 5884 5885 5887 5888 5890 5891 5893 5894 5895 5896 5896 5897 5898 5899 5900 5902 5902 5902 5903 5903 5903 5904 5904 5904 5904 5904 5905 5905 5906 5907 5907 5908 5908 5909 5910 5911 5912 5912 5912 5912 5913 5914
5844 5845 5847 5849 5851 5853 5855 5857 5859 5861 5863 5865 5866 5868 5870 5871 5873 5875 5877 5879 5880 5881 5882 5884 5886 5887 5888 5890 5891 5892 5893 5894 5895 5895 5896 5898 5899 5900 5900 5900 5901 5901 5901 5902 5902 5902 5902 5903 5903 5904 5905 5905 5906 5906 5907 5908 5909 5909 5910 5910 5910 5911 5912
5840 5841 5843 5845 5848 5850 5852 5854 5857 5859 5861 5862 5864 5866 5868 5869 5871 5873 5875 5876 5878 5879 5880 5881 5883 5884 5885 5886 5887 5889 5890 5891 5892 5893 5894 5895 5896 5897 5897 5898 5898 5899 5900 5900 5900 5900 5901 5901 5902 5902 5903 5904 5904 5905 5906 5906 5907 5907 5908 5908 5908 5908 5909
5836 5837 5839 5843 5846 5848 5850 5851 5854 5856 5858 5860 5862 5863 5865 5867 5869 5871 5872 5873 5875 5876 5878 5879 5881 5882 5882 5883 5885 5886 5887 5888 5889 5891 5892 5893 5893 5894 5894 5895 5896 5897 5898 5898 5898 5899 5900 5900 5901 5901 5902 5902 5903 5903 5904 5905 5905 5905 5906 5906 5906 5906 5906
5834 5835 5837 5840 5842 5844 5846 5848 5851 5853 5855 5858 5859 5861 5863 5865 5867 5869 5869 5870 5872 5874 5875 5877 5878 5879 5880 5881 5882 5883 5884 5885 5887 5888 5889 5890 5891 5891 5892 5894 5895 5896 5896 5897 5897 5898 5899 5899 5899 5900 5901 5901 5901 5902 5902 5903 5903 5904 5904 5904 5904 5904 5903
5832 5834 5836 5837 5838 5840 5842 5845 5847 5850 5853 5855 5857 5858 5860 5862 5864 5866 5866 5868 5870 5872 5873 5874 5875 5877 5878 5878 5880 5881 5882 5883 5884 5885 5886 5887 5888 5889 5891 5892 5893 5894 5895 5895 5896 5896 5897 5897 5898 5898 5899 5899 5900 5900 5901 5901 5902 5902 5902 5902 5902 5901 5901
5830 5832 5833 5834 5836 5839 5841 5843 5844 5847 5850 5852 5854 5856 5857 5859 5861 5863 5864 5866 5867 5869 5870 5871 5873 5875 5876 5877 5878 5879 5880 5881 5882 5883 5884 5885 5886 5888 5889 5890 5891 5892 5892 5893 5894 5894 5894 5895 5895 5896 5896 5897 5897 5898 5898 5899 5899 5900 5900 5900 5899 5899 5898
5828 5829 5830 5832 5836 5838 5839 5840 5842 5844 5847 5849 5852 5853 5855 5856 5858 5860 5862 5863 5865 5867 5868 5869 5870 5873 5874 5875 5876 5876 5877 5878 5880 5881 5882 5883 5885 5886 5887 5887 5888 5889 5889 5890 5891 5891 5892 5892 5893 5893 5893 5894 5895 5895 5896 5896 5897 5897 5898 5898 5897 5896 5895
5824 5826 5828 5831 5834 5835 5836 5838 5840 5841 5844 5846 5848 5850 5852 5853 5855 5857 5859 5860 5862 5864 5866 5867 5868 5870 5872 5873 5873 5874 5875 5876 5878 5879 5880 5881 5883 5884 5884 5885 5885 5886 5887 5887 5888 5888 5889 5890 5890 5891 5891 5891 5892 5892 5893 5893 5894 5894 5895 5895 5895 5894 5893
5820 5822 5825 5828 5830 5831 5834 5836 5837 5839 5841 5842 5845 5847 5849 5850 5852 5853 5856 5857 5859 5861 5863 5865 5866 5867 5868 5870 5870 5871 5873 5874 5876 5877 5878 5880 5881 5881 5882 5882 5883 5884 5884 5885 5885 5886 5886 5886 5887 5888 5889 5889 5889 5889 5890 5890 5890 5891 5891 5892 5892 5891 5890
5816 5819 5821 5824 5826 5828 5830 5832 5834 5836 5838 5839 5841 5843 5845 5847 5849 5850 5853 5854 5856 5858 5861 5863 5863 5864 5865 5867 5868 5869 5870 5872 5873 5875 5876 5877 5878 5879 5879 5880 5880 5881 5881 5882 5882 5882 5883 5883 5884 5885 5886 5886 5886 5886 5886 5887 5887 5887 5887 5888 5888 5888 5887
5812 5815 5818 5820 5822 5825 5826 5829 5831 5833 5835 5836 5838 5839 5841 5843 5845 5847 5849 5851 5853 5856 5858 5859 5860 5861 5863 5864 5865 5867 5868 5869 5871 5872 5873 5874 5875 5876 5876 5877 5877 5878 5878 5879 5879 5879 5879 5879 5880 5881 5882 5882 5883 5883 5883 5883 5883 5883 5884 5884 5884 5884 5882
5808 5811 5814 5817 5819 5821 5823 5825 5828 5830 5832 5833 5834 5835 5837 5839 5841 5844 5846 5848 5850 5852 5854 5856 5857 5859 5860 5862 5863 5864 5866 5867 5868 5869 5870 5870 5871 5872 5873 5874 5874 5874 5875 5875 5875 5875 5876 5876 5876 5876 5877 5878 5878 5879 5879 5879 5879 5879 5879 5880 5880 5879 5878
5805 5808 5810 5813 5815 5818 5820 5822 5824 5826 5828 5829 5830 5832 5833 5835 5837 5840 5842 5845 5847 5848 5850 5852 5854 5856 5857 5859 5860 5861 5863 5864 5865 5866 5866 5867 5868 5869 5870 5870 5870 5870 5871 5871 5871 5871 5872 5872 5872 5872 5872 5873 5873 5874 5874 5874 5874 5873 5874 5874 5874 5873 5872
5801 5804 5806 5809 5812 5814 5816 5818 5820 5822 5824 5825 5827 5828 5830 5832 5834 5836 5838 5841 5843 5844 5847 5849 5851 5853 5854 5855 5857 5858 5859 5861 5862 5863 5863 5864 5864 5865 5866 5866 5866 5866 5867 5867 5867 5868 5868 5868 5868 5868 5868 5868 5868 5869 5869 5868 5868 5868 5867 5868 5868 5867 5866
5797 5800 5803 5806 5808 5810 5813 5815 5816 5818 5820 5821 5823 5825 5826 5828 5830 5832 5834 5836 5838 5841 5843 5845 5847 5849 5850 5852 5853 5854 5856 5857 5858 5859 5859 5860 5860 5861 5861 5862 5862 5863 5863 5863 5864 5864 5864 5864 5864 5864 5864 5864 5864 5864 5863 5863 5862 5862 5861 5861 5861 5860 5860
5793 5796 5799 5801 5804 5806 5809 5811 5813 5814 5816 5818 5819 5821 5822 5824 5826 5828 5830 5832 5834 5836 5839 5841 5843 5844 5846 5848 5849 5850 5852 5853 5854 5854 5855 5855 5856 5856 5857 5858 5858 5859 5859 5860 5860 5860 5860 5860 5859 5859 5859 5860 5859 5858 5858 5857 5856 5856 5855 5854 5853 5852 5852
5789 5791 5794 5797 5799 5801 5804 5806 5808 5810 5812 5814 5816 5817 5819 5821 5822 5824 5826 5828 5830 5832 5835 5837 5839 5840 5842 5844 5845 5846 5847 5848 5849 5850 5851 5851 5852 5852 5853 5854 5854 5855 5855 5856 5855 5855 5855 5855 5854 5854 5854 5854 5853 5852 5851 5851 5850 5850 5849 5845 5843 5844 5844
5784 5787 5790 5792 5794 5797 5799 5802 5804 5806 5808 5810 5812 5814 5815 5817 5819 5821 5823 5824 5826 5828 5830 5833 5834 5836 5838 5839 5841 5842 5844 5845 5845 5846 5847 5847 5848 5848 5849 5850 5850 5850 5850 5850 5850 5850 5850 5850 5849 5849 5848 5847 5846 5845 5845 5844 5844 5844 5841 5838 5836 5836 5836
5780 5783 5785 5787 5790 5792 5795 5798 5800 5802 5804 5806 5808 5810 5812 5813 5815 5817 5819 5821 5823 5824 5827 5828 5830 5832 5834 5835 5837 5838 5839 5840 5841 5841 5842 5843 5843 5844 5845 5845 5846 5845 5845 5844 5845 5845 5845 5844 5844 5843 5842 5841 5839 5839 5838 5838 5837 5837 5835 5832 5830 5829 5828
5776 5778 5781 5783 5786 5788 5790 5793 5796 5798 5801 5802 5804 5806 5808 5809 5811 5813 5814 5816 5818 5820 5822 5824 5826 5827 5829 5831 5832 5833 5834 5835 5836 5836 5837 5838 5839 5840 5840 5840 5840 5840 5839 5839 5840 5840 5839 5838 5838 5837 5836 5834 5833 5832 5831 5830 5830 5829 5828 5826 5824 5822 5820
5771 5774 5776 5779 5781 5783 5786 5788 5791 5794 5796 5798 5800 5802 5803 5805 5807 5808 5810 5812 5814 5816 5817 5819 5821 5823 5824 5826 5827 5828 5829 5830 5830 5831 5832 5833 5833 5834 5835 5835 5835 5834 5833 5833 5833 5833 5832 5832 5831 5830 5829 5828 5826 5825 5823 5822 5821 5821 5821 5819 5817 5815 5812
5767 5769 5772 5774 5776 5779 5782 5784 5787 5789 5791 5794 5796 5797 5799 5801 5802 5804 5806 5807 5809 5811 5813 5814 5816 5818 5819 5821 5822 5823 5824 5824 5825 5826 5827 5827 5828 5828 5828 5828 5829 5828 5827 5827 5826 5825 5825 5825 5824 5823 5822 5821 5819 5818 5816 5815 5813 5812 5812 5811 5810 5808 5805